Location: F?ge?el
(45.8833°N, 22.5833°E)
Time: 05:57:41
(UTC+00:00)

SPOT 1/Viking Rocket - Pass Details

Date: 17 November 2025
Orbit: 773 x 788 km, 98.2° (Epoch: 04 December)

Event Time Altitude Azimuth Distance (km) Brightness Sun altitude
Rises 17:09:45 0° 180° (S) 3,252 6.8 -23.1°
Reaches altitude 10° 17:12:07 10° 185° (S) 2,331 6.1 -23.5°
Maximum altitude 17:17:06 50° 261° (W) 998 4.4 -24.4°
Drops below altitude 10° 17:22:10 10° 336° (NNW) 2,357 6.3 -25.2°
Sets 17:24:35 0° 342° (NNW) 3,292 7.0 -25.7°
